Location: Montreal
(45.5000°N, 73.5800°W)
Time: 03:22:16
(UTC-04:00)

ISS - Visible Passes

Search period start: 30 September 2023 00:00
Search period end: 10 October 2023 00:00
Orbit: 414 x 421 km, 51.6° (Epoch: 30 September)

Date Brightness Start Highest point End Pass type
(mag) Time Alt. Az. Time Alt. Az. Time Alt. Az.
30 Sep -2.9 20:18:35 10° WNW 20:21:47 42° SW 20:22:25 37° S visible
01 Oct -3.6 19:30:19 10° WNW 19:33:39 69° SSW 19:36:21 15° SE visible
01 Oct -0.6 21:09:04 10° WSW 21:09:16 10° WSW 21:09:16 10° WSW visible
02 Oct -1.3 20:19:25 10° W 20:21:44 17° SW 20:23:11 14° SSW visible
03 Oct -1.9 19:30:31 10° W 19:33:26 28° SW 19:36:21 10° SSE visible
05 Oct -0.7 19:31:17 10° WSW 19:32:30 11° SW 19:33:40 10° SSW visible
